Content
SEND FEEDBACK

Daily
Averages
Monthly
Summary
Thailand

RAYONG, THAILAND


Home > Asia > Thailand
Elevation: 16 feet     Latitude: 12 38N     Longitude: 101 21E

WEATHER
 
SELECT A DAY
Number of Records: 203,366;   Date Range: 7/1/96 - 9/28/14
 
SHARE

PRINT THIS DATA

[ ← Previous Day ]
WEATHER ALMANAC - FEBRUARY 16, 2013
[ Next Day → ]
[ °C ]   °F
Weather ElementAverageHighLow
Temperature83 °F89.6 °F (12:00 pm)77 °F (7:00 am)
Dewpoint73.5 °F75.2 °F (1:30 pm)73.4 °F (12:30 am)
Humidity73.5 %89 % (7:00 am)59 % (12:00 pm)
Barometer29.80 in29.89 in (10:00 am)29.74 in (3:00 pm)
Wind Speed5.2 mph11.5 mph (1:30 am)
Weather ElementAverage
Visibility3.3 mi
Wind DirectionSSE (161.9 °)

Weather ElementTotal
Precipitation---
Cooling Degree Days18.3 (Base 65)
Growing Degree Days33.3 (Base 50)
Averaged from 47 records on February 16, 2013
WEATHER CONDITIONS BREAKOUT
WIND DIRECTION BREAKOUT
WEATHER BY HOUR - FEBRUARY 16, 2013
[ °C ]   °F
Local TimeTemperatureDewpointHumidityBarometerVisibilityWind DirectionWind SpeedGust SpeedPrecipitationEventsConditions
12:30 AM82.4 °F73.4 °F74 %29.83 in1.9 miSouth (170°)9.2 mphMostly Cloudy
1:00 AM82.4 °F73.4 °F74 %29.83 in1.9 miSouth (190°)9.2 mphMostly Cloudy
1:30 AM82.4 °F73.4 °F74 %29.83 in1.9 miSouth (190°)11.5 mphMostly Cloudy
2:00 AM82.4 °F73.4 °F74 %29.83 in1.9 miSouth (190°)8.1 mphMostly Cloudy
2:30 AM80.6 °F73.4 °F79 %29.83 in1.9 miSouth (180°)6.9 mphMostly Cloudy
3:00 AM80.6 °F73.4 °F79 %29.80 in1.9 miSouth (180°)6.9 mphMostly Cloudy
3:30 AM80.6 °F73.4 °F79 %29.80 in1.9 miSSW (210°)5.8 mphMostly Cloudy
4:00 AM78.8 °F73.4 °F83 %29.80 in1.9 miSSW (210°)4.6 mphMostly Cloudy
4:30 AM80.6 °F73.4 °F79 %29.80 in1.9 miSSW (200°)4.6 mphMostly Cloudy
5:00 AM78.8 °F73.4 °F83 %29.80 in1.9 miSW (230°)3.5 mphMostly Cloudy
5:30 AM78.8 °F73.4 °F83 %29.80 in1.9 miSW (230°)3.5 mphMostly Cloudy
6:00 AM78.8 °F73.4 °F83 %29.80 in1.9 miSSW (210°)3.5 mphMostly Cloudy
6:30 AM78.8 °F73.4 °F83 %29.80 in1.9 miSW (230°)3.5 mphMostly Cloudy
7:00 AM77.0 °F73.4 °F89 %29.83 in2.5 miNNW (330°)3.5 mphMostly Cloudy
7:30 AM77.0 °F73.4 °F89 %29.83 in2.5 miNorth (350°)2.3 mphMostly Cloudy
8:00 AM78.8 °F73.4 °F83 %29.86 in2.5 miNW (320°)2.3 mphMostly Cloudy
8:30 AM82.4 °F73.4 °F74 %29.86 in3.1 miWSW (250°)2.3 mphMostly Cloudy
9:00 AM84.2 °F73.4 °F70 %29.86 in3.7 miSSW (210°)3.5 mphMostly Cloudy
9:30 AM84.2 °F73.4 °F70 %29.86 in3.7 miSouth (190°)4.6 mphMostly Cloudy
10:00 AM86.0 °F73.4 °F66 %29.89 in4.3 miSouth (180°)4.6 mphMostly Cloudy
10:30 AM86.0 °F73.4 °F66 %29.86 in4.3 miSouth (170°)4.6 mphMostly Cloudy
11:00 AM87.8 °F73.4 °F62 %29.86 in4.3 miSSE (160°)6.9 mphMostly Cloudy
11:30 AM87.8 °F73.4 °F62 %29.86 in4.3 miSouth (170°)6.9 mphMostly Cloudy
12:00 PM89.6 °F73.4 °F59 %29.83 in4.3 miSSE (160°)6.9 mphMostly Cloudy
12:30 PM89.6 °F73.4 °F59 %29.80 in4.3 miSSE (160°)9.2 mphMostly Cloudy
1:00 PM89.6 °F73.4 °F59 %29.80 in4.3 miSouth (170°)11.5 mphMostly Cloudy
1:30 PM87.8 °F75.2 °F66 %29.77 in4.3 miSouth (180°)11.5 mphMostly Cloudy
2:00 PM87.8 °F73.4 °F62 %29.77 in4.3 miSouth (190°)11.5 mphMostly Cloudy
2:30 PM87.8 °F73.4 °F62 %29.77 in4.3 miSSW (200°)9.2 mphMostly Cloudy
3:00 PM89.6 °F73.4 °F59 %29.74 in4.3 miSouth (190°)9.2 mphMostly Cloudy
3:30 PM86.0 °F73.4 °F66 %29.74 in4.3 miSSW (200°)9.2 mphMostly Cloudy
4:00 PM86.0 °F75.2 °F70 %29.74 in4.3 miSSW (200°)9.2 mphMostly Cloudy
4:30 PM86.0 °F73.4 °F66 %29.74 in3.7 miSouth (190°)9.2 mphMostly Cloudy
5:00 PM86.0 °F73.4 °F66 %29.74 in3.7 miSSW (210°)9.2 mphMostly Cloudy
5:30 PM86.0 °F73.4 °F66 %29.74 in3.7 miSouth (190°)6.9 mphMostly Cloudy
6:00 PM84.2 °F73.4 °F70 %29.74 in3.7 miSSW (210°)6.9 mphMostly Cloudy
6:30 PM82.4 °F73.4 °F74 %29.74 in3.7 miSSW (210°)4.6 mphMostly Cloudy
7:00 PM82.4 °F73.4 °F74 %29.77 in3.7 miCalmMostly Cloudy
7:30 PM82.4 °F73.4 °F74 %29.77 in3.7 miCalmMostly Cloudy
8:00 PM80.6 °F73.4 °F79 %29.77 in3.7 miCalmMostly Cloudy
8:30 PM80.6 °F73.4 °F79 %29.77 in3.7 miCalmMostly Cloudy
9:00 PM80.6 °F73.4 °F79 %29.80 in3.7 miCalmMostly Cloudy
9:30 PM80.6 °F73.4 °F79 %29.80 in3.7 miCalmMostly Cloudy
10:00 PM80.6 °F73.4 °F79 %29.80 in3.7 miCalmMostly Cloudy
10:30 PM78.8 °F73.4 °F83 %29.80 in3.7 miCalmMostly Cloudy
11:00 PM78.8 °F73.4 °F83 %29.83 in3.7 miCalmMostly Cloudy
11:30 PM78.8 °F73.4 °F83 %29.83 in3.7 miCalmMostly Cloudy
Hourly data recorded from VTBU, located miles away from Rayong, Thailand







STORIES FROM OUR PARTNERS